This demonstration page uses our WeatherBlox Daily Observations layout. Learn more.

Hourly Observations for October 23, 2017

Temp ( °F °C ) Dew Point ( °F °C ) Humidity (%) Winds ( mph kmh ) Pressure ( in mb ) Visibility ( mi km ) Precip ( " mm )
12:54 am 00:54 Clear 48 8.9 33 0.6 56 56 S 8 13 29.93 1014 10 16.0934 0 0
1:54 am 01:54 Clear 53 11.7 31 -0.6 43 43 SSW 7 11 29.93 1013 10 16.0934 0 0
2:54 am 02:54 Clear 52 11.1 32 0 47 47 S 7 11 29.9 1013 10 16.0934 0 0
3:54 am 03:54 Clear 53 11.7 31 -0.6 43 43 SSW 9 15 29.87 1012 10 16.0934 0 0
4:54 am 04:54 Clear 52 11.1 31 -0.6 45 45 W 6 9 29.9 1013 10 16.0934 0 0
5:54 am 05:54 Clear 51 10.6 32 0 48 48 WNW 6 9 29.91 1013 10 16.0934 0 0
6:54 am 06:54 Clear 55 12.8 37 2.8 51 51 N 8 13 29.93 1014 10 16.0934 0 0
7:54 am 07:54 Sunny 58 14.4 38 3.3 48 48 N 15 24 29.96 1015 10 16.0934 0 0
8:54 am 08:54 Mostly Cloudy 60 15.6 39 3.9 46 46 NNW 14 22 29.99 1016 10 16.0934 0 0
9:54 am 09:54 Mostly Cloudy with Light Rain 61 16.1 40 4.4 46 46 NNW 21 33 30.03 1017 10 16.0934 0 0.0254
10:54 am 10:54 Sunny 64 17.8 33 0.6 32 32 NW 25 41 30.05 1018 10 16.0934 0 0.0254
11:54 am 11:54 Sunny 61 16.1 35 1.7 38 38 NNW 23 37 30.07 1018 10 16.0934 0 0
12:54 pm 12:54 Sunny 65 18.3 34 1.1 32 32 NNW 26 43 30.05 1018 10 16.0934 0 0
1:54 pm 13:54 Sunny 66 18.9 31 -0.6 27 27 undefined N/A 30.04 1017 10 16.0934 0 0.0254
2:54 pm 14:54 Mostly Sunny 66 18.9 29 -1.7 25 25 undefined N/A 30.04 1017 10 16.0934 0 0
3:54 pm 15:54 Mostly Sunny 65 18.3 28 -2.2 25 25 undefined N/A 30.04 1017 10 16.0934 0 0
4:54 pm 16:54 Mostly Sunny 63 17.2 28 -2.2 27 27 undefined N/A 30.06 1018 10 16.0934 0 0
5:54 pm 17:54 Mostly Sunny 60 15.6 29 -1.7 31 31 undefined N/A 30.08 1019 10 16.0934 0 0
6:54 pm 18:54 Clear 57 13.9 29 -1.7 34 34 undefined N/A 30.11 1020 10 16.0934 0 0
7:54 pm 19:54 Clear 55 12.8 31 -0.6 40 40 undefined N/A 30.14 1021 10 16.0934 0 0
8:54 pm 20:54 Mostly Cloudy 54 12.2 32 0 43 43 undefined N/A 30.14 1021 10 16.0934 0 0
9:54 pm 21:54 Clear 52 11.1 35 1.7 53 53 undefined N/A 30.14 1021 10 16.0934 0 0
10:54 pm 22:54 Clear 50 10 35 1.7 57 57 undefined N/A 30.13 1020 10 16.0934 0 0
11:54 pm 23:54 Cloudy 52 11.1 33 0.6 49 49 undefined N/A 30.12 1020 10 16.0934 0 0

Powered by AerisWeather